CAPE
4 0 0 0 0 1 8 18 6 0 0 0 0 0 0 0 0 0 3 10 0 0 198 1096 1454 1366 1192 1053 938 839 775 477 112 39 23 4 0 0 0 0 0 0 0 0 0 0 0 0 8
0 0 0 0 0 2 0 1 4 0 0 0 0 0 0 0 0 0 0 4 0 0 161 756 1674 1517 1437 1386 1371 1323 1068 675 335 296 235 311 132 9 0 0 0 1 3 8 5 1 0 0 0
0 0 0 1 48 5 16 11 0 0 0 0 0 0 0 0 0 0 0 0 0 0 128 514 1803 1640 1649 1566 1595 1504 1195 958 671 714 508 495 192 146 68 20 59 60 61 19 11 14 7 0 2
0 0 0 1 0 0 6 1 0 0 0 0 0 0 0 0 0 0 0 43 0 1 105 545 1973 1869 1933 1593 1418 1424 1076 1020 1110 910 623 268 94 332 424 168 121 80 19 58 60 25 12 10 9
0 15 0 1 16 29 0 0 14 0 0 0 0 0 0 0 0 0 0 48 38 108 110 924 2097 2091 2168 1807 1520 1623 1681 1748 1175 756 611 270 353 465 159 93 71 71 64 80 127 103 130 159 64
1 0 0 0 0 1 0 0 0 0 0 0 0 0 0 0 0 0 0 0 9 283 698 1264 1917 2026 2020 2203 2078 2051 1796 1155 783 480 325 223 152 130 118 119 102 84 83 116 128 174 329 362 231
0 0 0 0 0 8 5 0 0 0 0 0 0 0 0 0 0 0 0 0 51 264 555 777 1134 1539 2216 1851 1515 1465 1045 665 296 16 0 0 0 0 8 13 60 33 83 118 130 218 507 535 437
0 0 0 0 0 0 6 6 0 0 0 0 0 0 0 0 0 0 0 0 0 2 16 58 229 357 418 723 952 870 623 84 0 0 0 0 0 0 1 10 17 26 19 28 117 229 613 478 569
0 0 0 0 1 0 1 1 0 0 0 0 0 0 0 0 0 0 0 0 0 0 0 0 4 28 46 31 90 430 73 2 1 2 0 3 0 0 0 0 12 48 173 182 154 246 395 499 513
0 0 0 0 0 0 1 0 1 2 5 0 0 0 0 0 0 0 0 0 0 0 0 0 0 0 0 0 0 32 0 0 2 0 0 0 0 0 0 0 1 13 20 240 341 460 543 570 145
1 0 0 0 0 1 0 0 6 7 0 0 0 0 0 0 0 0 0 0 0 0 0 0 0 0 0 0 0 0 0 0 0 0 0 0 0 0 0 0 0 0 0 5 141 258 470 379 272
0 0 0 0 0 0 0 0 0 0 0 0 0 0 0 0 0 0 0 0 0 0 0 0 0 0 0 1 1 0 0 0 0 0 0 0 0 0 0 0 2 3 0 0 87 270 414 364 384
0 0 1 0 0 0 4 0 0 0 0 0 0 0 0 0 0 0 0 0 0 0 0 0 0 2 36 61 3 0 0 0 0 0 0 0 0 1 8 15 15 13 0 0 86 234 338 417 368
0 0 0 0 0 0 0 0 1 0 0 0 0 0 2 0 0 0 14 6 0 0 0 0 0 38 84 22 2 0 0 0 0 0 0 0 0 7 28 7 3 0 0 2 24 194 314 309 262
0 0 0 0 0 0 0 0 0 0 0 0 0 2 4 0 0 0 17 9 10 0 0 0 13 51 36 0 0 1 7 0 0 0 0 0 2 19 27 5 0 0 0 0 10 75 196 243 237
0 0 0 0 0 0 0 0 0 0 0 0 1 1 0 0 0 0 0 0 18 0 3 2 16 9 7 0 2 1 19 0 0 83 40 4 4 2 11 0 0 10 2 0 0 83 165 144 115
0 0 0 0 0 0 0 0 0 0 0 0 0 0 4 0 2 1 14 12 29 10 6 2 4 4 1 0 0 0 1 0 104 156 40 11 0 0 0 0 16 29 34 0 1 105 134 187 207
0 0 0 0 0 0 0 0 0 0 0 0 0 5 0 0 0 18 47 44 39 6 5 5 4 10 13 21 0 11 0 65 247 172 38 20 0 0 0 0 56 29 28 0 0 4 72 140 100
0 0 0 0 0 0 0 0 0 0 0 0 6 1 1 4 16 66 71 98 20 0 7 0 0 0 20 0 27 38 33 74 27 44 51 48 19 0 0 5 75 44 6 2 0 12 31 80 102
0 0 0 0 0 0 0 0 0 0 5 1 4 0 4 37 23 39 84 49 5 0 0 5 8 1 5 1 155 149 118 63 44 75 82 37 33 35 4 2 38 54 24 10 0 41 75 125 131
0 0 0 0 0 0 0 0 0 0 2 1 0 0 3 0 27 53 34 13 6 0 0 44 6 7 0 73 39 1 5 38 23 42 37 31 40 13 10 26 54 51 16 0 32 40 69 142 139
0 0 0 0 0 0 0 0 0 0 0 0 0 0 0 0 12 12 10 0 4 0 0 10 13 0 36 52 0 97 53 45 49 18 16 35 31 28 39 84 45 70 62 26 28 63 73 83 107
0 0 0 0 0 0 0 0 0 0 0 0 0 0 0 0 0 0 0 6 0 0 0 9 0 82 65 54 17 12 0 27 12 0 0 4 40 65 66 62 64 35 76 47 72 54 19 62 81
0 0 0 0 0 0 0 0 0 0 0 0 0 0 0 0 0 0 2 0 0 0 5 1 0 14 77 100 4 0 0 0 0 4 18 37 36 60 57 127 73 99 101 88 43 38 48 51 117
0 0 0 0 0 0 0 0 0 0 0 0 0 0 0 0 0 0 0 3 0 0 0 0 0 8 20 30 0 0 0 0 0 0 0 26 21 40 39 97 106 32 122 101 40 14 17 3 80
0 0 0 0 0 0 0 0 0 0 0 0 0 0 1 4 2 4 0 1 0 0 0 0 6 0 0 0 0 0 0 0 0 2 32 30 15 19 0 68 159 76 146 193 125 14 58 0 20
0 0 0 0 0 0 0 0 0 0 0 0 0 0 2 12 4 1 17 0 0 0 0 0 3 0 0 0 0 0 0 2 37 13 10 35 32 42 54 105 111 204 210 162 105 99 154 99 125
0 0 0 0 0 0 0 0 0 0 0 0 0 0 1 1 6 29 0 0 0 0 0 0 0 0 0 0 0 2 0 44 64 34 8 46 93 150 195 229 183 205 212 176 145 152 140 183 218
0 0 0 0 0 0 0 0 0 0 0 0 0 0 0 12 19 14 0 0 0 0 0 0 0 0 0 0 0 13 43 72 6 0 15 60 86 174 136 218 228 228 190 177 138 146 163 152 124
0 0 0 0 0 0 0 0 0 0 0 0 1 6 4 11 20 2 0 0 0 0 0 0 0 0 0 0 0 2 3 21 1 0 28 54 61 117 157 217 209 193 137 113 149 129 104 77 89
CIN
-76 -0 -0 -0 -0 -27 -66 -45 -42 -0 -0 -0 -0 -0 -0 -0 -0 -0 -240 -398 -0 -0 -449 -183 -94 -92 -92 -77 -54 -32 -8 -17 -155 -233 -218 -31 -0 -0 -0 -0 -0 -0 -0 -0 -0 -0 -0 -0 -0
-0 -0 -0 -0 -0 -47 -0 -37 -0 -0 -0 -0 -0 -0 -0 -0 -0 -0 -0 -566 -0 -0 -448 -251 -114 -109 -82 -46 -17 -1 -0 -2 -37 -30 -44 -28 -80 -0 -0 -0 -0 -0 -0 -0 -0 -0 -0 -0 -0
-0 -0 -0 -45 -142 -82 -68 -39 -0 -0 -0 -0 -0 -0 -0 -0 -0 -0 -0 -0 -0 -0 -476 -308 -103 -80 -50 -30 -1 -0 -0 -0 -0 -0 -0 -0 -46 -71 -108 -0 -0 -0 -0 -0 -0 -0 -0 -0 -0
-0 -0 -0 -168 -0 -2 -109 -85 -0 -0 -0 -0 -0 -0 -0 -0 -0 -0 -0 -439 -0 -247 -474 -308 -91 -59 -28 -21 -14 -1 -2 -0 -0 -0 -0 -19 -122 -8 -12 -68 -120 -0 -0 -0 -0 -0 -0 -0 -0
-0 -204 -0 -153 -170 -146 -0 -0 -6 -4 -0 -0 -0 -0 -0 -0 -0 -0 -0 -384 -415 -419 -417 -239 -97 -65 -31 -21 -14 -0 -0 -0 -0 -0 -0 -37 -14 -5 -118 -0 -0 -0 -0 -0 -0 -0 -34 -13 -2
-131 -0 -0 -0 -0 -60 -0 -0 -0 -0 -1 -0 -0 -0 -0 -0 -0 -0 -0 -0 -345 -448 -329 -209 -111 -88 -67 -25 -4 -0 -0 -5 -7 -7 -42 -53 -95 -145 -0 -0 -0 -0 -0 -0 -0 -6 -1 -0 -2
-0 -0 -0 -0 -0 -120 -24 -0 -0 -0 -0 -0 -0 -0 -0 -0 -0 -0 -0 -0 -439 -381 -329 -262 -187 -112 -47 -45 -27 -13 -18 -23 -25 -26 -0 -0 -0 -0 -0 -0 -0 -0 -0 -134 -100 -14 -0 -0 -0
-0 -0 -0 -0 -0 -0 -31 -41 -0 -0 -0 -0 -0 -0 -0 -0 -0 -0 -0 -0 -0 -277 -567 -449 -416 -308 -226 -106 -40 -31 -31 -115 -0 -0 -0 -0 -0 -0 -0 -0 -0 -0 -0 -2 -72 -16 -0 -0 -0
-0 -0 -0 -0 -135 -0 -60 -4 -0 -28 -0 -0 -0 -0 -0 -0 -0 -0 -0 -0 -0 -0 -0 -0 -587 -486 -418 -273 -281 -73 -201 -112 -83 -118 -0 -3 -0 -0 -0 -0 -0 -92 -47 -35 -34 -8 -0 -1 -0
-0 -0 -0 -0 -0 -0 -96 -0 -33 -23 -24 -3 -0 -0 -0 -0 -0 -0 -0 -0 -0 -0 -0 -0 -0 -0 -0 -0 -0 -286 -0 -0 -104 -0 -0 -0 -0 -0 -0 -0 -0 -0 -2 -11 -0 -0 -0 -0 -2
-166 -0 -0 -0 -162 -125 -10 -0 -22 -22 -0 -0 -0 -0 -0 -0 -0 -0 -0 -0 -0 -0 -0 -0 -0 -0 -0 -0 -0 -0 -0 -0 -0 -0 -0 -0 -0 -0 -0 -0 -0 -0 -0 -6 -14 -2 -1 -1 -2
-0 -0 -0 -0 -0 -0 -0 -0 -0 -0 -0 -0 -0 -0 -0 -0 -0 -0 -0 -0 -0 -0 -0 -0 -0 -0 -0 -49 -45 -0 -0 -0 -0 -0 -0 -0 -0 -0 -0 -0 -22 -31 -0 -0 -16 -5 -4 -2 -1
-15 -0 -90 -0 -0 -2 -10 -0 -0 -0 -0 -0 -0 -0 -0 -0 -0 -0 -0 -1 -0 -0 -0 -0 -0 -104 -426 -349 -256 -0 -0 -0 -0 -0 -0 -0 -0 -6 -1 -23 -22 -19 -0 -0 -9 -4 -4 -1 -7
-0 -0 -0 -0 -0 -0 -0 -0 -0 -0 -0 -0 -0 -0 -11 -0 -0 -0 -59 -89 -0 -0 -0 -0 -0 -484 -406 -390 -275 -0 -0 -0 -0 -0 -0 -0 -0 -26 -0 -10 -11 -0 -0 -14 -24 -8 -5 -5 -13
-0 -0 -0 -0 -0 -0 -0 -0 -0 -0 -0 -0 -0 -10 -9 -0 -0 -0 -62 -70 -48 -0 -0 -0 -534 -472 -438 -30 -0 -123 -166 -0 -0 -0 -0 -0 -11 -15 -4 -8 -0 -0 -0 -0 -11 -17 -7 -10 -14
-0 -0 -0 -0 -0 -0 -20 -0 -0 -0 -0 -0 -13 -14 -0 -0 -0 -0 -0 -0 -32 -49 -535 -96 -494 -494 -445 -0 -69 -88 -147 -0 -2 -20 -39 -21 -5 -2 -6 -0 -0 -25 -2 -0 -3 -23 -18 -31 -34
-0 -0 -0 -0 -0 -0 -0 -0 -0 -0 -0 -0 -0 -0 -9 -0 -39 -3 -26 -25 -17 -24 -535 -266 -459 -316 -158 -0 -0 -0 -53 -0 -27 -32 -40 -27 -0 -0 -0 -0 -22 -18 -8 -0 -25 -20 -27 -24 -16
-0 -0 -0 -0 -0 -0 -0 -0 -0 -0 -0 -0 -0 -10 -0 -0 -0 -17 -13 -14 -17 -467 -559 -493 -439 -398 -387 -275 -0 -153 -5 -38 -25 -33 -49 -24 -20 -0 -0 -0 -12 -19 -11 -0 -0 -14 -55 -33 -35
-0 -0 -0 -0 -0 -0 -0 -0 -0 -0 -0 -0 -3 -14 -46 -46 -19 -8 -12 -8 -15 -0 -548 -0 -0 -0 -348 -0 -190 -73 -43 -17 -28 -53 -13 -19 -41 -0 -0 -4 -15 -25 -21 -15 -0 -71 -5 -12 -28
-0 -0 -0 -0 -0 -0 -0 -0 -0 -0 -0 -0 -4 -0 -51 -20 -22 -27 -23 -20 -49 -8 -0 -453 -393 -174 -360 -3 -95 -66 -25 -29 -35 -22 -18 -30 -36 -36 -11 -12 -30 -25 -26 -56 -0 -53 -39 -22 -20
-0 -0 -0 -0 -0 -0 -0 -0 -0 -0 -2 -3 -0 -0 -43 -0 -10 -7 -36 -48 -62 -0 -0 -383 -372 -368 -0 -160 -115 -25 -19 -21 -30 -20 -24 -23 -25 -28 -72 -48 -33 -32 -36 -0 -51 -57 -35 -14 -17
-0 -0 -0 -0 -0 -0 -0 -0 -0 -0 -0 -0 -3 -0 -0 -0 -22 -40 -64 -0 -58 -0 -0 -394 -356 -0 -268 -138 -0 -42 -44 -64 -18 -20 -32 -37 -25 -18 -46 -19 -32 -26 -29 -56 -68 -62 -46 -34 -16
-0 -0 -0 -0 -0 -0 -0 -0 -0 -0 -0 -0 -0 -0 -0 -0 -0 -0 -0 -80 -0 -0 -0 -383 -0 -259 -177 -105 -67 -19 -0 -76 -53 -0 -3 -28 -17 -16 -26 -26 -30 -32 -35 -53 -54 -68 -56 -37 -48
-0 -0 -0 -0 -0 -0 -0 -0 -0 -0 -0 -0 -0 -0 -0 -0 -0 -0 -83 -0 -0 -0 -353 -259 -0 -325 -136 -44 -37 -0 -0 -0 -0 -22 -36 -32 -22 -19 -24 -12 -24 -18 -24 -41 -36 -58 -50 -42 -48
-0 -0 -0 -0 -0 -0 -0 -0 -0 -0 -0 -0 -0 -0 -0 -0 -0 -0 -0 -67 -0 -0 -0 -0 -0 -304 -203 -76 -0 -0 -0 -0 -0 -0 -0 -15 -30 -20 -22 -20 -30 -49 -29 -37 -33 -67 -38 -62 -59
-0 -0 -0 -0 -0 -0 -0 -0 -0 -0 -0 -0 -0 -0 -7 -59 -99 -75 -0 -99 -0 -0 -0 -0 -352 -0 -0 -0 -0 -0 -0 -0 -0 -38 -29 -6 -19 -25 -0 -23 -22 -37 -33 -29 -33 -45 -64 -5 -61
-0 -0 -0 -0 -0 -0 -0 -0 -0 -0 -0 -0 -0 -0 -9 -41 -68 -11 -86 -0 -0 -0 -0 -0 -223 -0 -0 -0 -0 -0 -0 -8 -20 -32 -43 -11 -22 -35 -39 -27 -37 -36 -35 -33 -43 -66 -47 -57 -40
-0 -0 -0 -0 -0 -0 -0 -0 -0 -0 -0 -0 -0 -0 -88 -21 -99 -94 -25 -0 -0 -0 -0 -0 -0 -0 -0 -0 -0 -5 -0 -33 -31 -35 -43 -29 -16 -22 -25 -20 -32 -42 -27 -53 -57 -49 -33 -28 -14
-0 -0 -0 -0 -0 -0 -0 -0 -0 -0 -0 -0 -0 -35 -0 -58 -111 -159 -0 -0 -0 -0 -0 -0 -0 -0 -0 -0 -0 -20 -23 -28 -53 -0 -55 -34 -23 -24 -28 -27 -27 -21 -38 -50 -54 -40 -24 -15 -17
-0 -0 -0 -0 -0 -0 -0 -0 -0 -0 -0 -0 -105 -67 -92 -113 -146 -136 -0 -0 -0 -0 -0 -0 -0 -0 -0 -0 -0 -7 -4 -73 -34 -0 -39 -33 -34 -24 -40 -29 -28 -21 -34 -45 -52 -51 -34 -30 -17
Wind_Speed
nan nan nan nan nan nan nan nan nan nan nan nan nan nan nan nan nan nan nan nan nan nan 45 46 47 46 45 41 41 38 35 35 33 nan nan nan nan nan nan nan nan nan nan nan nan nan nan nan nan
nan nan nan nan nan nan nan nan nan nan nan nan nan nan nan nan nan nan nan nan nan nan 40 41 45 45 44 40 38 37 36 35 35 31 30 28 27 nan nan nan nan nan nan nan nan nan nan nan nan
nan nan nan nan nan nan nan nan nan nan nan nan nan nan nan nan nan nan nan nan nan nan 44 41 45 44 41 40 39 38 36 35 33 30 31 29 27 28 nan nan nan nan nan nan nan nan nan nan nan
nan nan nan nan nan nan nan nan nan nan nan nan nan nan nan nan nan nan nan nan nan nan 45 44 48 44 42 37 35 35 33 31 30 28 29 27 nan 30 31 32 31 nan nan nan nan nan nan nan nan
nan nan nan nan nan nan nan nan nan nan nan nan nan nan nan nan nan nan nan nan nan 43 44 46 44 44 36 33 32 30 27 31 30 27 27 27 29 31 32 nan nan nan nan nan 25 26 27 28 nan
nan nan nan nan nan nan nan nan nan nan nan nan nan nan nan nan nan nan nan nan nan 45 38 38 43 43 40 36 33 33 34 38 37 33 31 31 30 30 27 23 23 nan nan 26 26 28 29 29 31
nan nan nan nan nan nan nan nan nan nan nan nan nan nan nan nan nan nan nan nan nan 34 33 33 35 38 42 39 36 38 39 41 40 nan nan nan nan nan nan nan nan nan nan 22 24 25 28 29 31
nan nan nan nan nan nan nan nan nan nan nan nan nan nan nan nan nan nan nan nan nan nan nan nan 42 40 44 37 37 34 34 nan nan nan nan nan nan nan nan nan nan nan nan nan 23 22 24 25 30
nan nan nan nan nan nan nan nan nan nan nan nan nan nan nan nan nan nan nan nan nan nan nan nan nan nan nan nan nan 31 nan nan nan nan nan nan nan nan nan nan nan nan 25 20 21 20 23 26 29
nan nan nan nan nan nan nan nan nan nan nan nan nan nan nan nan nan nan nan nan nan nan nan nan nan nan nan nan nan nan nan nan nan nan nan nan nan nan nan nan nan nan nan 22 19 19 24 26 39
nan nan nan nan nan nan nan nan nan nan nan nan nan nan nan nan nan nan nan nan nan nan nan nan nan nan nan nan nan nan nan nan nan nan nan nan nan nan nan nan nan nan nan nan 29 26 28 29 34
nan nan nan nan nan nan nan nan nan nan nan nan nan nan nan nan nan nan nan nan nan nan nan nan nan nan nan nan nan nan nan nan nan nan nan nan nan nan nan nan nan nan nan nan nan 25 26 26 29
nan nan nan nan nan nan nan nan nan nan nan nan nan nan nan nan nan nan nan nan nan nan nan nan nan nan nan nan nan nan nan nan nan nan nan nan nan nan nan nan nan nan nan nan nan 26 26 27 27
nan nan nan nan nan nan nan nan nan nan nan nan nan nan nan nan nan nan nan nan nan nan nan nan nan nan nan nan nan nan nan nan nan nan nan nan nan nan nan nan nan nan nan nan nan 24 25 25 30
nan nan nan nan nan nan nan nan nan nan nan nan nan nan nan nan nan nan nan nan nan nan nan nan nan nan nan nan nan nan nan nan nan nan nan nan nan nan nan nan nan nan nan nan nan nan 19 23 28
nan nan nan nan nan nan nan nan nan nan nan nan nan nan nan nan nan nan nan nan nan nan nan nan nan nan nan nan nan nan nan nan nan nan nan nan nan nan nan nan nan nan nan nan nan nan 17 22 26
nan nan nan nan nan nan nan nan nan nan nan nan nan nan nan nan nan nan nan nan nan nan nan nan nan nan nan nan nan nan nan nan 26 28 nan nan nan nan nan nan nan nan nan nan nan 13 16 23 28
nan nan nan nan nan nan nan nan nan nan nan nan nan nan nan nan nan nan nan nan nan nan nan nan nan nan nan nan nan nan nan nan 27 25 nan nan nan nan nan nan nan nan nan nan nan nan nan 22 20
nan nan nan nan nan nan nan nan nan nan nan nan nan nan nan nan nan nan nan nan nan nan nan nan nan nan nan nan nan nan nan nan nan nan nan nan nan nan nan nan nan nan nan nan nan nan nan nan 22
nan nan nan nan nan nan nan nan nan nan nan nan nan nan nan nan nan nan nan nan nan nan nan nan nan nan nan nan 27 27 25 nan nan nan nan nan nan nan nan nan nan nan nan nan nan nan nan 22 23
nan nan nan nan nan nan nan nan nan nan nan nan nan nan nan nan nan nan nan nan nan nan nan nan nan nan nan nan nan nan nan nan nan nan nan nan nan nan nan nan nan nan nan nan nan nan nan 22 27
nan nan nan nan nan nan nan nan nan nan nan nan nan nan nan nan nan nan nan nan nan nan nan nan nan nan nan nan nan nan nan nan nan nan nan nan nan nan nan nan nan nan nan nan nan nan nan nan 25
nan nan nan nan nan nan nan nan nan nan nan nan nan nan nan nan nan nan nan nan nan nan nan nan nan nan nan nan nan nan nan nan nan nan nan nan nan nan nan nan nan nan nan nan nan nan nan nan nan
nan nan nan nan nan nan nan nan nan nan nan nan nan nan nan nan nan nan nan nan nan nan nan nan nan nan nan 22 nan nan nan nan nan nan nan nan nan nan nan 2 nan nan 10 nan nan nan nan nan 19
nan nan nan nan nan nan nan nan nan nan nan nan nan nan nan nan nan nan nan nan nan nan nan nan nan nan nan nan nan nan nan nan nan nan nan nan nan nan nan nan 7 nan 13 15 nan nan nan nan nan
nan nan nan nan nan nan nan nan nan nan nan nan nan nan nan nan nan nan nan nan nan nan nan nan nan nan nan nan nan nan nan nan nan nan nan nan nan nan nan nan 10 nan 14 16 20 nan nan nan nan
nan nan nan nan nan nan nan nan nan nan nan nan nan nan nan nan nan nan nan nan nan nan nan nan nan nan nan nan nan nan nan nan nan nan nan nan nan nan nan 11 10 13 13 17 16 nan 17 nan 19
nan nan nan nan nan nan nan nan nan nan nan nan nan nan nan nan nan nan nan nan nan nan nan nan nan nan nan nan nan nan nan nan nan nan nan nan nan 10 8 10 10 12 13 14 13 14 22 15 23
nan nan nan nan nan nan nan nan nan nan nan nan nan nan nan nan nan nan nan nan nan nan nan nan nan nan nan nan nan nan nan nan nan nan nan nan nan 13 9 12 9 9 9 12 14 16 16 17 21
nan nan nan nan nan nan nan nan nan nan nan nan nan nan nan nan nan nan nan nan nan nan nan nan nan nan nan nan nan nan nan nan nan nan nan nan nan 12 11 13 11 11 11 11 15 14 15 nan nan
Wind_Direction
nan nan nan nan nan nan nan nan nan nan nan nan nan nan nan nan nan nan nan nan nan nan 313 316 321 320 321 322 318 318 315 312 313 nan nan nan nan nan nan nan nan nan nan nan nan nan nan nan nan
nan nan nan nan nan nan nan nan nan nan nan nan nan nan nan nan nan nan nan nan nan nan 312 315 323 324 323 320 318 317 317 316 317 317 312 307 308 nan nan nan nan nan nan nan nan nan nan nan nan
nan nan nan nan nan nan nan nan nan nan nan nan nan nan nan nan nan nan nan nan nan nan 316 317 323 319 319 320 318 317 316 317 316 315 310 307 307 309 nan nan nan nan nan nan nan nan nan nan nan
nan nan nan nan nan nan nan nan nan nan nan nan nan nan nan nan nan nan nan nan nan nan 319 318 320 314 306 312 313 313 316 312 310 309 307 307 nan 305 307 310 305 nan nan nan nan nan nan nan nan
nan nan nan nan nan nan nan nan nan nan nan nan nan nan nan nan nan nan nan nan nan 318 317 317 322 321 320 318 315 316 312 307 308 309 309 308 306 304 299 nan nan nan nan nan 284 276 280 271 nan
nan nan nan nan nan nan nan nan nan nan nan nan nan nan nan nan nan nan nan nan nan 323 317 320 326 329 329 328 326 318 312 308 307 303 302 299 296 294 294 294 290 nan nan 287 284 280 276 272 265
nan nan nan nan nan nan nan nan nan nan nan nan nan nan nan nan nan nan nan nan nan 319 318 323 323 328 327 322 315 310 310 310 308 nan nan nan nan nan nan nan nan nan nan 292 285 273 272 272 266
nan nan nan nan nan nan nan nan nan nan nan nan nan nan nan nan nan nan nan nan nan nan nan nan 320 309 299 297 304 310 309 nan nan nan nan nan nan nan nan nan nan nan nan nan 287 275 270 268 263
nan nan nan nan nan nan nan nan nan nan nan nan nan nan nan nan nan nan nan nan nan nan nan nan nan nan nan nan nan 304 nan nan nan nan nan nan nan nan nan nan nan nan 298 289 279 275 269 272 258
nan nan nan nan nan nan nan nan nan nan nan nan nan nan nan nan nan nan nan nan nan nan nan nan nan nan nan nan nan nan nan nan nan nan nan nan nan nan nan nan nan nan nan 272 271 268 272 263 246
nan nan nan nan nan nan nan nan nan nan nan nan nan nan nan nan nan nan nan nan nan nan nan nan nan nan nan nan nan nan nan nan nan nan nan nan nan nan nan nan nan nan nan nan 251 251 251 251 241
nan nan nan nan nan nan nan nan nan nan nan nan nan nan nan nan nan nan nan nan nan nan nan nan nan nan nan nan nan nan nan nan nan nan nan nan nan nan nan nan nan nan nan nan nan 251 254 250 234
nan nan nan nan nan nan nan nan nan nan nan nan nan nan nan nan nan nan nan nan nan nan nan nan nan nan nan nan nan nan nan nan nan nan nan nan nan nan nan nan nan nan nan nan nan 255 251 241 231
nan nan nan nan nan nan nan nan nan nan nan nan nan nan nan nan nan nan nan nan nan nan nan nan nan nan nan nan nan nan nan nan nan nan nan nan nan nan nan nan nan nan nan nan nan 256 247 234 224
nan nan nan nan nan nan nan nan nan nan nan nan nan nan nan nan nan nan nan nan nan nan nan nan nan nan nan nan nan nan nan nan nan nan nan nan nan nan nan nan nan nan nan nan nan nan 235 223 212
nan nan nan nan nan nan nan nan nan nan nan nan nan nan nan nan nan nan nan nan nan nan nan nan nan nan nan nan nan nan nan nan nan nan nan nan nan nan nan nan nan nan nan nan nan nan 228 204 202
nan nan nan nan nan nan nan nan nan nan nan nan nan nan nan nan nan nan nan nan nan nan nan nan nan nan nan nan nan nan nan nan 329 328 nan nan nan nan nan nan nan nan nan nan nan 220 200 196 190
nan nan nan nan nan nan nan nan nan nan nan nan nan nan nan nan nan nan nan nan nan nan nan nan nan nan nan nan nan nan nan nan 327 329 nan nan nan nan nan nan nan nan nan nan nan nan nan 179 178
nan nan nan nan nan nan nan nan nan nan nan nan nan nan nan nan nan nan nan nan nan nan nan nan nan nan nan nan nan nan nan nan nan nan nan nan nan nan nan nan nan nan nan nan nan nan nan nan 182
nan nan nan nan nan nan nan nan nan nan nan nan nan nan nan nan nan nan nan nan nan nan nan nan nan nan nan nan 323 326 328 nan nan nan nan nan nan nan nan nan nan nan nan nan nan nan nan 174 179
nan nan nan nan nan nan nan nan nan nan nan nan nan nan nan nan nan nan nan nan nan nan nan nan nan nan nan nan nan nan nan nan nan nan nan nan nan nan nan nan nan nan nan nan nan nan nan 178 171
nan nan nan nan nan nan nan nan nan nan nan nan nan nan nan nan nan nan nan nan nan nan nan nan nan nan nan nan nan nan nan nan nan nan nan nan nan nan nan nan nan nan nan nan nan nan nan nan 171
nan nan nan nan nan nan nan nan nan nan nan nan nan nan nan nan nan nan nan nan nan nan nan nan nan nan nan nan nan nan nan nan nan nan nan nan nan nan nan nan nan nan nan nan nan nan nan nan nan
nan nan nan nan nan nan nan nan nan nan nan nan nan nan nan nan nan nan nan nan nan nan nan nan nan nan nan 317 nan nan nan nan nan nan nan nan nan nan nan 68 nan nan 142 nan nan nan nan nan 185
nan nan nan nan nan nan nan nan nan nan nan nan nan nan nan nan nan nan nan nan nan nan nan nan nan nan nan nan nan nan nan nan nan nan nan nan nan nan nan nan 90 nan 146 146 nan nan nan nan nan
nan nan nan nan nan nan nan nan nan nan nan nan nan nan nan nan nan nan nan nan nan nan nan nan nan nan nan nan nan nan nan nan nan nan nan nan nan nan nan nan 100 nan 135 143 157 nan nan nan nan
nan nan nan nan nan nan nan nan nan nan nan nan nan nan nan nan nan nan nan nan nan nan nan nan nan nan nan nan nan nan nan nan nan nan nan nan nan nan nan 109 110 120 138 138 156 nan 170 nan 182
nan nan nan nan nan nan nan nan nan nan nan nan nan nan nan nan nan nan nan nan nan nan nan nan nan nan nan nan nan nan nan nan nan nan nan nan nan 83 110 119 114 128 143 146 152 156 189 197 191
nan nan nan nan nan nan nan nan nan nan nan nan nan nan nan nan nan nan nan nan nan nan nan nan nan nan nan nan nan nan nan nan nan nan nan nan nan 85 129 135 130 133 147 157 173 173 164 169 166
nan nan nan nan nan nan nan nan nan nan nan nan nan nan nan nan nan nan nan nan nan nan nan nan nan nan nan nan nan nan nan nan nan nan nan nan nan 93 139 137 132 136 147 166 185 170 183 nan nan